Date,TemperatureHighF,TemperatureAvgF,TemperatureLowF,DewpointHighF,DewpointAvgF,DewpointLowF,HumidityHigh,HumidityAvg,HumidityLow,PressureMaxIn,PressureMinIn,WindSpeedMaxMPH,WindSpeedAvgMPH,GustSpeedMaxMPH,PrecipitationSumIn
2013-3-1,68.0,46.5,26.1,13.6,5.5,-5.5,34,20,10,30.37,30.28,10,2,10,0.00
2013-3-2,77.4,51.6,31.1,27.5,13.0,2.6,42,24,8,30.40,30.22,11,1,11,0.02
2013-3-3,76.3,54.8,32.7,25.0,9.1,-0.4,40,19,6,30.25,30.08,20,3,20,0.06
2013-3-4,69.1,59.1,42.4,19.1,9.1,0.5,38,15,8,30.16,29.99,26,8,26,0.42
2013-3-5,73.8,54.2,33.1,30.5,19.8,11.8,56,30,11,30.22,30.11,17,3,17,0.42
2013-3-6,78.4,60.9,47.5,28.5,20.1,12.1,34,22,10,30.16,30.02,17,3,20,0.42
2013-3-7,74.1,57.2,39.6,27.9,14.9,6.0,41,22,8,30.08,29.99,17,4,17,0.42
2013-3-8,63.1,51.5,39.4,46.9,32.4,15.1,83,51,26,30.05,29.90,27,10,27,0.85
2013-3-9,51.3,42.6,35.8,34.2,28.8,24.7,77,59,41,30.11,29.99,20,7,20,0.85
2013-3-10,58.8,46.2,37.8,35.1,28.5,21.2,79,53,27,30.19,30.11,13,3,13,0.85
2013-3-11,69.6,48.5,30.2,31.9,23.4,9.6,73,42,10,30.25,30.11,9,1,9,0.85
2013-3-12,75.4,53.2,34.3,32.5,22.1,14.4,62,34,10,30.22,30.14,8,1,8,0.85
2013-3-13,80.6,58.8,39.6,25.2,16.3,5.6,40,22,7,30.28,30.16,10,2,10,0.85
2013-3-14,83.1,61.1,41.7,21.9,12.1,0.3,29,17,6,30.31,30.16,8,1,8,0.85
2013-3-15,85.3,59.0,41.9,21.4,12.0,3.0,29,18,6,30.22,30.05,20,2,20,0.85
2013-3-19,80.4,44.4,0.0,23.2,8.7,0.0,24,11,9,30.10,25.57,17,5,17,0.00
2013-3-20,78.8,60.0,40.6,30.8,15.8,6.7,39,21,8,30.13,29.95,15,2,15,0.00
2013-3-21,73.4,58.1,48.6,28.4,17.6,8.6,28,21,9,29.95,29.80,21,2,21,0.00
2013-3-22,74.1,64.1,54.7,26.7,15.0,6.7,25,16,8,29.89,29.74,23,8,25,0.00
2013-3-23,69.3,61.5,45.9,24.6,10.0,-3.9,30,14,7,30.01,29.86,26,10,26,0.00
2013-3-24,70.3,54.3,36.1,7.3,-0.8,-8.4,17,11,7,30.04,29.89,17,4,17,0.00
2013-3-25,73.9,54.6,34.5,10.9,1.5,-8.9,17,11,7,30.07,29.98,11,1,11,0.00
2013-3-26,79.9,59.8,39.4,12.4,3.5,-6.4,16,11,6,30.07,29.92,15,4,15,0.00
2013-3-27,79.7,71.4,61.2,12.4,9.5,6.3,11,9,7,30.07,29.98,18,7,18,0.00
2013-3-28,78.6,64.5,46.8,26.2,10.6,0.4,27,13,7,30.13,30.01,18,4,18,0.00
2013-3-29,80.2,64.6,48.2,12.4,7.3,-1.1,18,11,7,30.16,30.04,16,3,16,0.00
2013-3-30,79.5,63.3,46.8,12.4,6.8,-1.6,16,11,7,30.13,30.01,15,2,15,0.00
2013-3-31,79.0,68.3,51.4,24.7,11.6,0.1,29,12,7,30.10,29.98,17,3,17,0.00